Location: ????????
(55.8351°N, 38.7040°E)
Time: 10:19:26
(UTC+00:00)

Cosmos 1666 Rocket - Pass Details

Date: 14 April 2024
Orbit: 600 x 630 km, 82.5° (Epoch: 28 May)

Event Time Altitude Azimuth Distance (km) Brightness Sun altitude
Rises 01:29:10 0° 344° (NNW) 2,939 7.2 -7.6°
Reaches altitude 10° 01:31:29 10° 338° (NNW) 2,025 6.3 -7.3°
Maximum altitude 01:35:44 43° 267° (W) 886 4.0 -6.8°
Drops below altitude 10° 01:39:57 10° 196° (SSW) 2,001 5.8 -6.3°
Sets 01:42:14 0° 190° (S) 2,899 6.6 -6.0°
